When you browse on this site, cookies collect data to enhance your experience and personalize the content and advertising you see.
Visit our Privacy Policy to learn more. By continuing to use the site, you agree to this use of cookies and data.
  • In Hungary
  • List of Countries
  • For 7 days
  • Water Temperature
  • Satellite Maps
  • Weather Map
  • News
  • Weather Widgets
  • user-avatar
    Login

    Hourly Weather Lobamba

    Today, 11 December, Tuesday

    Time Temperature Precipitation Wind Pressure Humidity
    00:00 +15°C° 0 mm 1 mps 701 mmHg 86%
    01:00 +15°C° 0 mm 1 mps 701 mmHg 87%
    02:00 +14°C° 0 mm 1 mps 701 mmHg 88%
    03:00 +14°C° 0 mm 1 mps 701 mmHg 88%
    04:00 +14°C° 0 mm 1 mps 701 mmHg 88%
    05:00 +14°C° 0 mm 1 mps 701 mmHg 88%
    06:00 +16°C° 0 mm 1 mps 701 mmHg 78%
    07:00 +18°C° 0 mm 2 mps 701 mmHg 69%
    08:00 +20°C° 0 mm 2 mps 702 mmHg 61%
    09:00 +23°C° 0 mm 2 mps 702 mmHg 55%
    10:00 +25°C° 0 mm 2 mps 702 mmHg 49%
    11:00 +26°C° 0 mm 2 mps 702 mmHg 43%
    12:00 +27°C° 0 mm 2 mps 701 mmHg 42%
    13:00 +27°C° 0 mm 2 mps 701 mmHg 41%
    14:00 +27°C° 0 mm 2 mps 700 mmHg 40%
    15:00 +27°C° 0 mm 2 mps 700 mmHg 43%
    16:00 +26°C° 0 mm 3 mps 700 mmHg 47%
    17:00 +25°C° 0 mm 3 mps 699 mmHg 50%
    18:00 +23°C° 0 mm 2 mps 699 mmHg 60%
    19:00 +20°C° 0 mm 2 mps 699 mmHg 71%
    20:00 +19°C° 0 mm 1 mps 699 mmHg 81%
    21:00 +18°C° 0 mm 1 mps 700 mmHg 84%
    22:00 +18°C° 0 mm 1 mps 700 mmHg 87%
    23:00 +16°C° 0 mm 0 mps 700 mmHg 90%

    Tomorrow, 12 December, Wednesday

    Time Temperature Precipitation Wind Pressure Humidity
    00:00 +15°C° 0 mm 0 mps 700 mmHg 91%
    01:00 +15°C° 0 mm 0 mps 699 mmHg 92%
    02:00 +15°C° 0 mm 0 mps 699 mmHg 93%
    03:00 +15°C° 0 mm 0 mps 699 mmHg 94%
    04:00 +15°C° 0 mm 1 mps 698 mmHg 94%
    05:00 +15°C° 0 mm 1 mps 698 mmHg 95%
    06:00 +19°C° 0 mm 1 mps 698 mmHg 83%
    07:00 +22°C° 0 mm 1 mps 698 mmHg 71%
    08:00 +24°C° 0 mm 2 mps 699 mmHg 59%
    09:00 +27°C° 0 mm 2 mps 699 mmHg 52%
    10:00 +30°C° 0 mm 2 mps 699 mmHg 44%
    11:00 +34°C° 0 mm 2 mps 699 mmHg 36%
    12:00 +34°C° 0 mm 2 mps 698 mmHg 36%
    13:00 +34°C° 0 mm 2 mps 697 mmHg 35%
    14:00 +35°C° 0 mm 2 mps 697 mmHg 34%
    15:00 +34°C° 0 mm 2 mps 696 mmHg 38%
    16:00 +32°C° 0 mm 2 mps 696 mmHg 42%
    17:00 +31°C° 0 mm 2 mps 696 mmHg 46%
    18:00 +29°C° 0 mm 2 mps 696 mmHg 55%
    19:00 +26°C° 0 mm 1 mps 696 mmHg 64%
    20:00 +24°C° 0 mm 1 mps 697 mmHg 73%
    21:00 +23°C° 0 mm 1 mps 697 mmHg 75%
    22:00 +23°C° 0 mm 1 mps 698 mmHg 77%
    23:00 +22°C° 0 mm 1 mps 698 mmHg 79%

    Day after tomorrow, 13 December, Thursday

    Time Temperature Precipitation Wind Pressure Humidity
    00:00 +19°C° 0 mm 0 mps 698 mmHg 80%
    01:00 +19°C° 0 mm 0 mps 698 mmHg 82%
    02:00 +18°C° 0 mm 0 mps 697 mmHg 83%
    03:00 +18°C° 0 mm 0 mps 698 mmHg 84%
    04:00 +20°C° 0 mm 1 mps 698 mmHg 85%
    05:00 +19°C° 0 mm 1 mps 698 mmHg 86%
    06:00 +22°C° 0 mm 1 mps 699 mmHg 77%
    07:00 +24°C° 0 mm 1 mps 700 mmHg 68%
    08:00 +26°C° 0 mm 2 mps 701 mmHg 59%
    09:00 +28°C° 0 mm 2 mps 701 mmHg 54%
    10:00 +29°C° 0 mm 2 mps 701 mmHg 48%
    11:00 +31°C° 0 mm 2 mps 701 mmHg 43%
    12:00 +32°C° 0 mm 2 mps 701 mmHg 42%
    13:00 +33°C° 0 mm 3 mps 700 mmHg 41%
    14:00 +34°C° 0 mm 3 mps 700 mmHg 40%
    15:00 +33°C° 0.1 mm 3 mps 699 mmHg 44%
    16:00 +31°C° 0.1 mm 3 mps 699 mmHg 48%
    17:00 +30°C° 0.1 mm 3 mps 699 mmHg 52%
    18:00 +28°C° 0 mm 3 mps 699 mmHg 61%
    19:00 +26°C° 0 mm 2 mps 700 mmHg 70%
    20:00 +23°C° 0 mm 2 mps 700 mmHg 79%
    21:00 +23°C° 0 mm 2 mps 701 mmHg 83%
    22:00 +22°C° 0 mm 1 mps 701 mmHg 87%
    23:00 +22°C° 0 mm 1 mps 702 mmHg 90%

    14 December, Friday

    Time Temperature Precipitation Wind Pressure Humidity
    00:00 +22°C° 0 mm 1 mps 701 mmHg 91%
    01:00 +22°C° 0 mm 1 mps 701 mmHg 92%
    02:00 +21°C° 0 mm 1 mps 701 mmHg 92%
    03:00 +21°C° 0.1 mm 1 mps 701 mmHg 93%
    04:00 +21°C° 0.1 mm 1 mps 701 mmHg 94%
    05:00 +21°C° 0.1 mm 1 mps 702 mmHg 94%
    06:00 +22°C° 0 mm 1 mps 702 mmHg 91%
    07:00 +22°C° 0 mm 1 mps 702 mmHg 87%
    08:00 +23°C° 0 mm 1 mps 703 mmHg 84%
    09:00 +24°C° 0 mm 1 mps 703 mmHg 78%
    10:00 +25°C° 0 mm 1 mps 702 mmHg 73%
    11:00 +27°C° 0 mm 1 mps 702 mmHg 67%
    12:00 +28°C° 0 mm 2 mps 702 mmHg 63%
    13:00 +29°C° 0 mm 2 mps 701 mmHg 59%
    14:00 +30°C° 0 mm 2 mps 700 mmHg 55%
    15:00 +30°C° 0 mm 2 mps 700 mmHg 57%
    16:00 +29°C° 0 mm 3 mps 699 mmHg 58%
    17:00 +29°C° 0 mm 3 mps 699 mmHg 60%
    18:00 +27°C° 0.1 mm 2 mps 699 mmHg 68%
    19:00 +25°C° 0.1 mm 2 mps 700 mmHg 76%
    20:00 +23°C° 0.1 mm 2 mps 700 mmHg 85%
    21:00 +23°C° 1.3 mm 1 mps 701 mmHg 87%
    22:00 +22°C° 1.3 mm 1 mps 701 mmHg 90%
    23:00 +22°C° 1.3 mm 1 mps 702 mmHg 93%

    15 December, Saturday

    Time Temperature Precipitation Wind Pressure Humidity
    00:00 +22°C° 0.6 mm 1 mps 701 mmHg 93%
    01:00 +22°C° 0.6 mm 1 mps 701 mmHg 93%
    02:00 +22°C° 0.6 mm 1 mps 700 mmHg 93%
    03:00 +22°C° 0.3 mm 1 mps 701 mmHg 92%
    04:00 +21°C° 0.3 mm 2 mps 701 mmHg 90%
    05:00 +21°C° 0.3 mm 2 mps 701 mmHg 88%
    06:00 +23°C° 0 mm 2 mps 701 mmHg 84%
    07:00 +24°C° 0 mm 2 mps 701 mmHg 80%
    08:00 +25°C° 0 mm 2 mps 701 mmHg 76%
    09:00 +28°C° 0 mm 2 mps 701 mmHg 63%
    10:00 +31°C° 0 mm 2 mps 701 mmHg 50%
    11:00 +35°C° 0 mm 2 mps 700 mmHg 37%
    12:00 +37°C° 0 mm 2 mps 700 mmHg 34%
    13:00 +38°C° 0 mm 2 mps 699 mmHg 31%
    14:00 +39°C° 0 mm 2 mps 699 mmHg 28%
    15:00 +38°C° 0 mm 2 mps 698 mmHg 32%
    16:00 +36°C° 0 mm 2 mps 698 mmHg 36%
    17:00 +35°C° 0 mm 3 mps 698 mmHg 40%
    18:00 +31°C° 0.5 mm 3 mps 698 mmHg 49%
    19:00 +29°C° 0.5 mm 3 mps 699 mmHg 57%
    20:00 +26°C° 0.5 mm 3 mps 699 mmHg 66%
    21:00 +25°C° 4 mm 3 mps 700 mmHg 75%
    22:00 +24°C° 4 mm 2 mps 700 mmHg 84%
    23:00 +23°C° 4 mm 2 mps 701 mmHg 93%

    16 December, Sunday

    Time Temperature Precipitation Wind Pressure Humidity
    00:00 +21°C° 0.2 mm 2 mps 701 mmHg 94%
    01:00 +22°C° 0.2 mm 1 mps 701 mmHg 94%
    02:00 +22°C° 0.2 mm 1 mps 700 mmHg 94%
    03:00 +22°C° 0 mm 1 mps 700 mmHg 95%
    04:00 +21°C° 0 mm 1 mps 701 mmHg 96%
    05:00 +21°C° 0 mm 1 mps 701 mmHg 97%
    06:00 +22°C° 0 mm 1 mps 701 mmHg 91%
    07:00 +23°C° 0 mm 1 mps 701 mmHg 86%
    08:00 +24°C° 0 mm 1 mps 702 mmHg 80%
    09:00 +26°C° 0 mm 1 mps 702 mmHg 73%
    10:00 +27°C° 0 mm 1 mps 701 mmHg 66%
    11:00 +29°C° 0 mm 1 mps 701 mmHg 58%
    12:00 +30°C° 0 mm 1 mps 701 mmHg 54%
    13:00 +32°C° 0 mm 2 mps 700 mmHg 50%
    14:00 +34°C° 0 mm 2 mps 700 mmHg 45%
    15:00 +32°C° 0.1 mm 2 mps 699 mmHg 47%
    16:00 +33°C° 0.1 mm 3 mps 699 mmHg 50%
    17:00 +31°C° 0.1 mm 3 mps 699 mmHg 52%
    18:00 +28°C° 0.1 mm 3 mps 700 mmHg 62%
    19:00 +26°C° 0.1 mm 3 mps 700 mmHg 72%
    20:00 +24°C° 0.1 mm 2 mps 700 mmHg 82%
    21:00 +23°C° 0.2 mm 2 mps 701 mmHg 84%
    22:00 +21°C° 0.2 mm 2 mps 701 mmHg 87%
    23:00 +21°C° 0.2 mm 2 mps 701 mmHg 89%
    Show more